#timestamp,LO_Frequency,Hit 
1504440015.8,286047000.0,N
1504440035.6,286047003.9,N
1504440055.4,286047002.9,N
1504440075.3,286047002.4,N
1504440095.1,286046998.6,N
1504440096.0,286046998.6,N
1504440115.8,286047000.4,N
1504440135.6,286046998.9,N
1504440155.5,286046999.5,N
1504440175.3,286046995.0,N
1504440195.1,286046997.8,N
1504440215.9,286046999.6,N
1504440235.7,286046998.4,N
1504440255.5,286047001.9,N
1504440275.4,286047001.6,N
1504440295.2,286047002.1,N
1504440315.0,286047001.2,N
1504440315.9,286047001.2,N
1504440335.8,286046999.4,N
1504440355.6,286046997.1,N
1504440375.4,286046997.8,N
1504440395.3,286046997.7,N
1504440415.1,286046999.1,N
1504440416.0,286046999.1,N
1504440435.8,286046997.2,N
1504440455.7,286046997.9,N
1504440475.5,286046996.9,N
1504440495.3,286046997.3,N
1504440515.1,286046995.0,N
1504440535.9,286046999.4,N
1504440555.7,286046997.0,N
1504440575.6,286046993.3,P
1504440595.4,286046997.6,N
1504440615.2,286046999.6,N
1504440635.0,286046999.0,N
1504440636.0,286046999.0,N
1504440655.8,286046998.4,N
1504440675.6,286046997.8,N
1504440695.5,286046994.3,P
1504440715.3,286046994.3,P
1504440735.1,286046996.2,N
1504440755.9,286046994.8,P
1504440775.7,286046996.9,P
1504440795.5,286046999.5,N
1504440815.4,286046999.2,N
1504440835.2,286046998.4,N
1504440855.0,286047002.8,N
1504440855.9,286047002.8,N
1504440875.8,286047002.2,N
1504440895.6,286047002.1,N
1504440915.4,286047004.2,N
1504440935.2,286047002.6,N
1504440955.1,286047000.2,N
1504440956.0,286047000.2,N
1504440975.8,286047001.9,N
1504440995.6,286046999.8,N
1504441015.5,286047000.9,N
1504441035.3,286046999.0,N
1504441055.2,286046992.0,P
1504441075.9,286046991.7,N
1504441095.7,286046994.6,N
1504441115.5,286046995.9,N
1504441135.4,286046997.4,N
1504441155.2,286046996.6,N
1504441175.0,286046996.5,N
1504441175.9,286046996.5,N
1504441195.8,286046999.8,N
1504441215.6,286047002.7,N
1504441235.4,286047003.9,N
1504441255.3,286047000.0,N
1504441275.1,286047000.1,N
1504441295.8,286047000.1,N
1504441315.7,286047000.8,N
1504441335.5,286046996.6,N
1504441355.3,286046997.7,N
1504441375.2,286047000.8,N
1504441395.9,286047000.9,N
1504441415.7,286047001.1,N
1504441435.6,286047001.4,N
1504441455.4,286047001.1,N
1504441475.2,286047001.0,N
1504441495.0,286047006.0,N
1504441496.0,286047006.0,N
1504441515.8,286047004.2,N
1504441535.6,286047003.5,N
1504441555.4,286047008.3,N
1504441575.3,286047006.9,N
1504441595.1,286047005.4,N
1504441615.8,286047006.7,N
1504441635.7,286047010.7,N
1504441655.5,286047006.1,N
1504441675.3,286047008.4,N
1504441695.2,286047010.7,N
1504441715.9,286047007.1,N
1504441735.7,286047007.9,N
1504441755.6,286047008.5,N
1504441775.4,286047010.6,N
1504441795.2,286047008.6,N
1504441815.1,286047009.1,N
1504441816.0,286047009.1,N
1504441835.8,286047010.4,N
1504441855.6,286047010.8,N
1504441875.5,286047008.4,N
1504441895.3,286047009.0,N
1504441915.1,286047012.3,P
1504441935.9,286047005.9,N
1504441955.7,286047004.6,N
1504441975.5,286047005.8,N
1504441995.4,286047005.0,N
1504442015.2,286047009.2,P
1504442035.0,286047000.9,N
1504442035.9,286047000.9,N
1504442055.8,286046998.0,N
1504442075.6,286046996.3,N
1504442095.4,286046994.8,N
1504442115.3,286046994.1,N
1504442135.1,286046996.4,N
1504442136.0,286046996.4,N
1504442155.8,286046997.6,N
1504442175.7,286046993.8,N
1504442195.5,286046991.1,N
1504442215.3,286046990.3,N
1504442235.2,286046996.4,N
1504442255.9,286046991.1,N
1504442275.7,286046988.8,N
1504442295.5,286046988.4,N
1504442315.4,286046988.7,N
1504442335.2,286046987.1,N
1504442355.0,286046985.3,N
1504442355.9,286046985.3,N
1504442375.8,286046989.4,N
1504442395.6,286046993.2,N
1504442415.4,286046992.7,N
1504442435.3,286046992.4,N
1504442455.1,286046992.9,N
1504442456.0,286046992.9,N
1504442475.8,286046992.8,N
1504442495.7,286046993.1,N
1504442515.5,286046992.1,N
1504442535.3,286046997.4,N
1504442555.2,286046996.9,N
1504442575.9,286046997.1,N
1504442595.7,286046993.4,N
1504442615.6,286046996.8,N
1504442635.4,286046997.8,N
1504442655.2,286046999.2,N
1504442675.1,286046996.9,N
1504442676.0,286046996.9,N
1504442695.8,286046999.0,N
1504442715.6,286046999.2,N
1504442735.4,286046999.6,N
1504442755.3,286047001.0,N
1504442775.1,286047001.7,N
1504442795.8,286047002.0,N
1504442815.7,286047003.0,N
1504442835.5,286047008.3,N
1504442855.3,286047010.7,N
1504442875.2,286047004.9,N
1504442895.9,286047001.4,N
1504442915.7,286047002.3,N
1504442935.6,286047000.4,N
1504442955.4,286047001.7,N
1504442975.2,286047003.6,N
1504442995.1,286047002.9,N
1504442996.0,286047002.9,N
1504443015.8,286047004.4,N
1504443035.6,286047003.8,N
1504443055.5,286047000.8,N
1504443075.3,286046996.2,N
1504443095.1,286046995.3,N
1504443115.7,286046995.3,N
1504443135.6,286046995.4,N
1504443155.4,286046996.2,N
1504443175.2,286046993.9,N
1504443195.1,286046990.3,N
1504443196.0,286046990.3,N
1504443215.8,286046990.5,N
1504443235.6,286046996.3,N
1504443255.5,286046997.4,N
1504443275.3,286046997.3,N
1504443295.1,286046997.1,N
1504443315.9,286046990.3,N
1504443335.7,286046994.8,N
1504443355.5,286046997.3,N
1504443375.3,286046995.1,N
1504443395.2,286046992.0,N
1504443415.0,286046992.4,N
1504443415.9,286046992.4,N
1504443435.7,286046996.4,N
1504443455.6,286046991.9,N
1504443475.4,286046996.2,N
1504443495.2,286046997.2,N
1504443515.1,286046993.4,N
1504443516.0,286046993.4,N
1504443535.8,286046990.4,N
1504443555.6,286046992.1,N
1504443575.5,286046990.3,P
1504443595.3,286047001.0,N
